SWA2712 KLAX-KSFO

Flight info

Callsign SWA2712
Flight time N/A
Altitude 38000
Route SUMMR2 STOKD SERFR SERFR4
Aircraft B736/M-SDE2E3FGHIRWXY/LB1

Departure

Time 2026-04-26 19:29
Airport Los Angeles International Airport (KLAX)

Arrival

Time N/A
Airport San Francisco International Airport (KSFO)
Time Latitude Longitude Altitude Speed Heading
2026-04-26 18:45 33.94786 -118.40172 124 ft 0 kts 141°
2026-04-26 19:23 33.94790 -118.40176 119 ft 2 kts 140°
2026-04-26 19:24 33.94802 -118.40188 119 ft 2 kts 137°
2026-04-26 19:24 33.94814 -118.40202 122 ft 2 kts 134°
2026-04-26 19:24 33.94829 -118.40221 119 ft 0 kts 130°
2026-04-26 19:26 33.94829 -118.40207 119 ft 4 kts 83°
2026-04-26 19:26 33.94837 -118.40154 125 ft 10 kts 80°
2026-04-26 19:27 33.94858 -118.40088 125 ft 8 kts 28°
2026-04-26 19:27 33.94901 -118.40078 121 ft 11 kts 21°
2026-04-26 19:27 33.94926 -118.40010 125 ft 4 kts 84°
2026-04-26 19:27 33.94937 -118.39953 121 ft 9 kts 71°
2026-04-26 19:28 33.94998 -118.39914 125 ft 13 kts 355°
2026-04-26 19:28 33.95035 -118.39995 125 ft 17 kts 263°
2026-04-26 19:28 33.94996 -118.40377 125 ft 91 kts 263°
2026-04-26 19:28 33.94870 -118.41559 257 ft 185 kts 262°
2026-04-26 19:29 33.94729 -118.43153 1028 ft 194 kts 262°
2026-04-26 19:29 33.94563 -118.44765 1836 ft 187 kts 263°
2026-04-26 19:29 33.94399 -118.46349 2737 ft 207 kts 263°
2026-04-26 19:29 33.94284 -118.48264 3272 ft 243 kts 268°
2026-04-26 19:30 33.94227 -118.50292 4618 ft 238 kts 269°
2026-04-26 19:30 33.94139 -118.52343 4935 ft 247 kts 265°
2026-04-26 19:30 33.93976 -118.54381 4961 ft 243 kts 265°
2026-04-26 19:30 33.93862 -118.55724 4981 ft 244 kts 265°
2026-04-26 19:31 33.93637 -118.58467 4990 ft 248 kts 265°
2026-04-26 19:31 33.93470 -118.60554 5005 ft 252 kts 265°
2026-04-26 19:31 33.93303 -118.62665 4996 ft 253 kts 265°
2026-04-26 19:31 33.93137 -118.64771 4994 ft 251 kts 265°
2026-04-26 19:32 33.92974 -118.66861 4989 ft 250 kts 265°
2026-04-26 19:32 33.92813 -118.68941 4981 ft 248 kts 265°
2026-04-26 19:32 33.92655 -118.70972 4979 ft 246 kts 265°
2026-04-26 19:32 33.92497 -118.73014 4982 ft 244 kts 265°
2026-04-26 19:33 33.92339 -118.75038 5061 ft 242 kts 265°
2026-04-26 19:33 33.92178 -118.77108 5492 ft 255 kts 265°
2026-04-26 19:33 33.92011 -118.79243 5936 ft 257 kts 265°
2026-04-26 19:33 33.91843 -118.81382 5974 ft 255 kts 265°
2026-04-26 19:34 33.91688 -118.83500 5975 ft 254 kts 268°
2026-04-26 19:34 33.91702 -118.85616 5991 ft 252 kts 272°
2026-04-26 19:34 33.91783 -118.87715 5990 ft 250 kts 272°
2026-04-26 19:34 33.91867 -118.89805 5984 ft 250 kts 272°
2026-04-26 19:35 33.91943 -118.91891 5987 ft 250 kts 272°
2026-04-26 19:35 33.92011 -118.93987 6016 ft 251 kts 272°
2026-04-26 19:35 33.92076 -118.96092 6040 ft 251 kts 272°
2026-04-26 19:35 33.92138 -118.98204 6270 ft 256 kts 272°
2026-04-26 19:36 33.92206 -119.00367 7388 ft 256 kts 274°
2026-04-26 19:36 33.92424 -119.01755 8317 ft 254 kts 287°
2026-04-26 19:36 33.93540 -119.04290 9983 ft 260 kts 300°
2026-04-26 19:36 33.94515 -119.06151 11044 ft 265 kts 300°
2026-04-26 19:37 33.95513 -119.08045 11691 ft 269 kts 300°
2026-04-26 19:37 33.96520 -119.09968 11938 ft 288 kts 300°
2026-04-26 19:37 33.97623 -119.12095 12554 ft 306 kts 300°
2026-04-26 19:37 33.98761 -119.14296 13557 ft 312 kts 300°
2026-04-26 19:38 33.99915 -119.16532 14523 ft 317 kts 300°
2026-04-26 19:38 34.01203 -119.18715 15389 ft 325 kts 312°
2026-04-26 19:38 34.02968 -119.20471 16298 ft 332 kts 321°
2026-04-26 19:38 34.04867 -119.22105 17185 ft 338 kts 323°
2026-04-26 19:39 34.06816 -119.23740 18084 ft 344 kts 323°
2026-04-26 19:39 34.08796 -119.25401 18921 ft 349 kts 323°
2026-04-26 19:39 34.10796 -119.27090 19740 ft 353 kts 322°
2026-04-26 19:39 34.12815 -119.28807 20566 ft 357 kts 322°
2026-04-26 19:40 34.14854 -119.30552 21386 ft 361 kts 322°
2026-04-26 19:40 34.16886 -119.32298 22190 ft 366 kts 322°
2026-04-26 19:40 34.18973 -119.34096 22990 ft 371 kts 321°
2026-04-26 19:40 34.21086 -119.35918 23756 ft 375 kts 321°
2026-04-26 19:41 34.23219 -119.37760 24433 ft 379 kts 321°
2026-04-26 19:41 34.25377 -119.39624 25132 ft 383 kts 321°
2026-04-26 19:41 34.27555 -119.41507 25810 ft 387 kts 321°
2026-04-26 19:41 34.29040 -119.42791 26252 ft 389 kts 321°
2026-04-26 19:42 34.31977 -119.45333 27132 ft 395 kts 321°
2026-04-26 19:42 34.34220 -119.47276 27749 ft 398 kts 321°
2026-04-26 19:42 34.36488 -119.49240 28382 ft 402 kts 321°
2026-04-26 19:42 34.38777 -119.51226 28985 ft 406 kts 320°
2026-04-26 19:43 34.41075 -119.53234 29594 ft 409 kts 319°
2026-04-26 19:43 34.43198 -119.55516 30288 ft 406 kts 312°
2026-04-26 19:43 34.45176 -119.57933 31056 ft 401 kts 310°
2026-04-26 19:43 34.47100 -119.60369 31755 ft 398 kts 309°
2026-04-26 19:44 34.49007 -119.62798 32382 ft 398 kts 309°
2026-04-26 19:44 34.50921 -119.65218 33035 ft 397 kts 309°
2026-04-26 19:44 34.52814 -119.67592 33624 ft 396 kts 309°
2026-04-26 19:44 34.54758 -119.70012 34216 ft 394 kts 308°
2026-04-26 19:45 34.56652 -119.72359 34683 ft 395 kts 308°
2026-04-26 19:45 34.58577 -119.74740 35126 ft 395 kts 308°
2026-04-26 19:45 34.60502 -119.77119 35594 ft 394 kts 308°
2026-04-26 19:45 34.62423 -119.79492 36061 ft 393 kts 308°
2026-04-26 19:46 34.64339 -119.81861 36494 ft 393 kts 308°
2026-04-26 19:46 34.66255 -119.84232 36936 ft 393 kts 307°
2026-04-26 19:46 34.68168 -119.86601 37426 ft 392 kts 307°
2026-04-26 19:46 34.70075 -119.88963 37835 ft 392 kts 307°
2026-04-26 19:47 34.71989 -119.91339 38030 ft 395 kts 307°
2026-04-26 19:47 34.73264 -119.92924 38016 ft 397 kts 307°
2026-04-26 19:47 34.77742 -119.98480 38023 ft 390 kts 307°
2026-04-26 19:48 34.81537 -120.03204 38041 ft 391 kts 307°
2026-04-26 19:48 34.85330 -120.07932 38032 ft 393 kts 307°
2026-04-26 19:49 34.89161 -120.12714 38036 ft 394 kts 307°
2026-04-26 19:49 34.92996 -120.17505 38046 ft 395 kts 307°
2026-04-26 19:50 34.96841 -120.22317 38049 ft 396 kts 308°
2026-04-26 19:50 35.00697 -120.27148 38037 ft 397 kts 308°
2026-04-26 19:51 35.04550 -120.31982 38038 ft 397 kts 308°
2026-04-26 19:51 35.08399 -120.36818 38041 ft 397 kts 308°
2026-04-26 19:52 35.12399 -120.41480 38040 ft 398 kts 311°
2026-04-26 19:52 35.16519 -120.46021 38030 ft 398 kts 311°
2026-04-26 19:53 35.20608 -120.50559 38042 ft 397 kts 311°
2026-04-26 19:53 35.24655 -120.55092 38044 ft 397 kts 311°
2026-04-26 19:54 35.28729 -120.59677 38058 ft 398 kts 311°
2026-04-26 19:54 35.32811 -120.64280 38043 ft 399 kts 311°
2026-04-26 19:55 35.36892 -120.68885 38055 ft 399 kts 311°
2026-04-26 19:55 35.40982 -120.73509 38040 ft 400 kts 311°
2026-04-26 19:56 35.45077 -120.78143 38035 ft 400 kts 311°
2026-04-26 19:56 35.49198 -120.82742 38049 ft 402 kts 314°
2026-04-26 19:57 35.53651 -120.86945 38045 ft 405 kts 317°
2026-04-26 19:57 35.58188 -120.91042 38051 ft 405 kts 317°
2026-04-26 19:58 35.62670 -120.95148 38037 ft 404 kts 317°
2026-04-26 19:58 35.67156 -120.99310 38042 ft 403 kts 317°
2026-04-26 19:59 35.71634 -121.03486 38029 ft 404 kts 317°
2026-04-26 19:59 35.76119 -121.07678 37606 ft 407 kts 317°
2026-04-26 20:00 35.78363 -121.09776 37116 ft 404 kts 317°
2026-04-26 20:00 35.80598 -121.11866 36601 ft 402 kts 317°
2026-04-26 20:00 35.82822 -121.13948 36020 ft 402 kts 318°
2026-04-26 20:00 35.85050 -121.16035 35408 ft 402 kts 318°
2026-04-26 20:01 35.87250 -121.18100 34828 ft 403 kts 318°
2026-04-26 20:01 35.89468 -121.20180 34403 ft 398 kts 319°
2026-04-26 20:01 35.91664 -121.22241 33938 ft 395 kts 319°
2026-04-26 20:01 35.93844 -121.24288 33407 ft 392 kts 319°
2026-04-26 20:02 35.96005 -121.26320 32954 ft 388 kts 319°
2026-04-26 20:02 35.98136 -121.28326 32532 ft 383 kts 319°
2026-04-26 20:02 36.00241 -121.30309 32108 ft 379 kts 319°
2026-04-26 20:02 36.01622 -121.31611 31832 ft 376 kts 319°
2026-04-26 20:03 36.04383 -121.34215 31280 ft 371 kts 320°
2026-04-26 20:03 36.06425 -121.36140 30883 ft 367 kts 320°
2026-04-26 20:03 36.08501 -121.37950 30590 ft 363 kts 324°
2026-04-26 20:03 36.10614 -121.39609 30342 ft 357 kts 325°